#timestamp,LO_Frequency,Hit,StdDev 
1649840415.1,286047002.5,N
1649840416.0,286047002.5,N
1649840435.8,286047001.4,N
1649840455.7,286047003.6,Y
1649840475.5,286047001.3,P
1649840495.3,286046999.7,P
1649840515.2,286047002.2,N
1649840535.0,286047001.7,N
1649840535.9,286047001.7,N
1649840555.8,286047001.3,N
1649840575.6,286047001.7,N
1649840595.4,286047003.5,Y
1649840615.3,286047001.5,P
1649840635.1,286047002.7,P
1649840655.9,286046998.2,P
1649840675.7,286047000.7,N
1649840695.5,286047002.4,N
1649840715.4,286047002.1,N
1649840735.2,286047000.2,N
1649840755.0,286047002.3,N
1649840755.9,286047002.3,N
1649840775.8,286046999.9,N
1649840795.6,286047002.4,N
1649840815.5,286047000.1,N
1649840835.3,286047002.6,N
1649840855.1,286047001.6,N
1649840875.9,286047002.3,N
1649840895.7,286047000.3,N
1649840915.5,286047000.5,N
1649840935.4,286046998.4,N
1649840955.2,286046998.6,N
1649840975.1,286046998.2,N
1649840976.0,286046998.2,N
1649840995.8,286047001.1,N
1649841015.6,286047000.8,N
1649841035.5,286047000.0,N
1649841055.3,286047000.7,N
1649841075.2,286046998.5,N
1649841095.9,286046999.5,N
1649841115.7,286046998.4,N
1649841135.6,286047001.6,N
1649841155.4,286047002.6,N
1649841175.2,286047002.4,N
1649841195.1,286047000.6,N
1649841196.0,286047000.6,N
1649841215.8,286046998.5,N
1649841235.7,286047000.6,N
1649841255.5,286046996.9,N
1649841275.3,286046997.4,N
1649841295.2,286046995.4,N
1649841315.0,286046997.5,N
1649841315.9,286046997.5,N
1649841335.8,286046996.7,N
1649841355.6,286046997.3,N
1649841375.4,286046996.7,N
1649841395.3,286046997.5,N
1649841415.1,286046999.3,N
1649841435.8,286046998.7,N
1649841455.7,286046999.3,N
1649841475.5,286046996.6,N
1649841495.4,286046996.9,N
1649841515.2,286046996.8,N
1649841535.0,286046995.0,N
1649841535.9,286046995.0,N
1649841555.8,286046997.5,N
1649841575.6,286046994.9,N
1649841595.4,286046997.7,N
1649841615.3,286046995.7,N
1649841635.1,286046994.1,N
1649841655.9,286046994.7,N
1649841675.7,286046993.6,N
1649841695.5,286046993.5,N
1649841715.4,286046995.2,N
1649841735.2,286046994.2,N
1649841755.1,286046994.0,Y
1649841756.0,286046994.0,P
1649841775.8,286046997.2,N
1649841795.6,286046996.6,N
1649841815.5,286046995.3,Y
1649841835.3,286047000.4,P
1649841855.2,286047000.1,N
1649841875.9,286047001.5,N
1649841895.7,286047002.3,N
1649841915.6,286046998.1,N
1649841935.4,286047000.9,N
1649841955.2,286047001.0,N
1649841975.1,286047001.1,N
1649841976.0,286047001.1,N
1649841995.8,286047000.5,N
1649842015.7,286047002.6,N
1649842035.5,286047002.7,N
1649842055.3,286047002.7,N
1649842075.2,286047000.6,N
1649842095.0,286047000.3,N
1649842095.9,286047000.3,N
1649842115.8,286046998.3,N
1649842135.6,286046998.8,N
1649842155.4,286046999.5,N
1649842175.3,286047001.1,N
1649842195.1,286046998.5,N
1649842215.9,286047000.0,N
1649842235.7,286046999.2,N
1649842255.6,286046998.9,N
1649842275.4,286046999.1,N
1649842295.2,286046999.4,N
1649842315.1,286046999.1,N
1649842316.0,286046999.1,N
1649842335.8,286046999.2,N
1649842355.7,286046996.6,N
1649842375.5,286046998.0,N
1649842395.3,286046994.9,Y
1649842415.2,286046995.4,P
1649842435.0,286046996.4,N
1649842435.9,286046996.4,N
1649842455.7,286046993.3,Y
1649842475.6,286046996.8,P
1649842495.4,286046994.9,P
1649842515.3,286046997.4,N
1649842535.1,286046997.2,N
1649842555.8,286046996.7,Y
1649842575.7,286047000.3,P
1649842595.5,286047002.2,N
1649842615.4,286047000.2,N
1649842635.2,286047002.4,N
1649842655.0,286047002.6,N
1649842655.9,286047002.6,N
1649842675.8,286047002.8,N
1649842695.6,286047002.5,N
1649842715.4,286046999.8,N
1649842735.3,286046999.7,N
1649842755.1,286047000.8,N
1649842775.5,286046998.2,N
1649842795.3,286046999.2,N
1649842815.2,286046998.9,N
1649842835.0,286046999.5,N
1649842835.9,286046999.5,N
1649842855.8,286046998.6,N
1649842875.6,286046998.5,N
1649842895.4,286046999.5,N
1649842915.3,286046998.9,N
1649842935.1,286046999.6,N
1649842955.9,286046996.6,N
1649842975.7,286046996.8,N
1649842995.5,286046996.8,N
1649843015.4,286046996.5,N
1649843035.2,286046994.9,N
1649843055.0,286046996.8,N
1649843056.0,286046996.8,N
1649843075.8,286046996.7,N
1649843095.6,286046997.0,N
1649843115.5,286046999.4,N
1649843135.3,286046998.6,N
1649843155.1,286046999.1,N
1649843175.9,286046997.1,N
1649843195.7,286046995.3,N
1649843215.6,286046996.6,N
1649843235.4,286046996.9,N
1649843255.2,286046996.1,N
1649843275.1,286046995.8,N
1649843276.0,286046995.8,N
1649843295.8,286046996.1,N
1649843315.6,286046995.8,N
1649843335.5,286046995.8,N
1649843355.3,286046995.6,Y
1649843405.2,286046996.5,E
1649843415.1,286046998.5,N
1649843416.0,286046998.5,P
1649843435.8,286046999.8,P
1649843455.7,286047001.1,N
1649843475.5,286047000.8,N
1649843495.3,286047002.7,N
1649843515.2,286047002.8,N
1649843535.0,286047000.6,N
1649843535.9,286047000.6,N
1649843555.8,286047000.6,N
1649843575.6,286046999.7,N
1649843595.4,286047000.2,N
1649843615.3,286047002.4,N
1649843635.1,286047002.7,N
1649843655.9,286047002.4,N
1649843675.7,286047000.0,N
1649843695.5,286047000.1,N
1649843715.4,286047000.0,N
1649843735.2,286047000.8,N
1649843755.0,286047000.3,N
1649843756.0,286047000.3,N
1649843775.9,286047000.5,N
1649843795.7,286046998.2,N
1649843815.6,286046999.4,N
1649843835.4,286046999.0,N
1649843855.2,286046998.5,N
1649843875.1,286046998.6,N
1649843876.0,286046998.6,N
1649843895.8,286047000.6,N
1649843915.7,286046998.3,N
1649843935.5,286046998.2,N
1649843955.3,286047000.5,N
1649843975.2,286046998.5,N
1649843995.0,286047000.9,N
1649843995.9,286047000.9,N
